Location: Corona
(40.7470°N, 73.8601°W)
Time: 15:27:10
(UTC+00:00)

Cosmos 2219 - Pass Details

Date: 22 September 2019
Orbit: 834 x 860 km, 71.1° (Epoch: 14 October)

Event Time Altitude Azimuth Distance (km) Brightness Sun altitude
Rises 23:10:50 0° 185° (S) 3,417 6.4 -4.2°
Reaches altitude 10° 23:13:21 10° 180° (S) 2,486 5.6 -4.7°
Maximum altitude 23:18:49 49° 107° (ESE) 1,104 3.5 -5.7°
Drops below altitude 10° 23:24:19 10° 34° (NE) 2,499 5.4 -6.8°
Sets 23:26:51 0° 29° (NNE) 3,438 6.1 -7.2°
